Fort Campbell, KY

8:11 AM CDT on August 27, 2016 (GMT -0500)
Campbell Army Air Field

Weather History for KHOP - April, 2013

Change the Weather History Date:

Monday, April 15, 2013

  Actual Average Record
Temperature  
Mean Temperature 68 °F -  
Max Temperature 81 °F 68 °F 86 °F (2002)
Min Temperature 55 °F 47 °F 29 °F (2008)
Cooling Degree Days 3    
Growing Degree Days 18 (Base 50)    
Moisture  
Dew Point 56 °F    
Average Humidity 71    
Maximum Humidity 100    
Minimum Humidity 39    
Precipitation  
Precipitation 0.00 in - - ()
Sea Level Pressure  
Sea Level Pressure 29.92 in    
Wind  
Wind Speed 7 mph (SSE)    
Max Wind Speed 13 mph    
Max Gust Speed 17 mph    
Visibility 10 miles    
Events      
Averages and records for this station are not official NWS values.
T = Trace of Precipitation, MM = Missing Value Source: NWS Daily Summary

Daily Weather History Graph

Daily Weather History Graph

Search for Another Location

Airport or City:

Trip Planner

Search our weather history database for the weather conditions in past years. The results will help you decide how hot, cold, wet, or windy it might be!

Date:

Astronomy

Apr. 15, 2013 Rise Set
Actual Time 6:15 AM CDT 7:24 PM CDT
Civil Twilight 5:49 AM CDT 7:51 PM CDT
Nautical Twilight 5:17 AM CDT 8:23 PM CDT
Astronomical Twilight 4:44 AM CDT 8:56 PM CDT
Moon 9:46 AM CDT (4/15) No Moon Set
Length of Visible Light 14h 02m
Length of Day
13h 08m
Waxing Crescent, 25% of the Moon is Illuminated
Apr 15
Waxing Crescent
Apr 18
First Quarter
Apr 25
Full
May 2
Last Quarter
May 9
New

Hourly Weather History & Observations

Time (CDT) Temp. Heat Index Dew Point Humidity Pressure Visibility Wind Dir Wind Speed Gust Speed Precip Events Conditions
12:50 AM 59.0 °F - 51.8 °F 77% 29.88 in 10.0 mi SSE 6.9 mph - N/A   Overcast
12:55 AM 59.4 °F - 52.5 °F 78% 29.88 in 10.0 mi South 6.9 mph - N/A   Overcast
1:20 AM 59.0 °F - 53.6 °F 82% 29.88 in 10.0 mi SSE 8.1 mph - N/A   Overcast
1:55 AM 59.0 °F - 53.4 °F 82% 29.88 in 10.0 mi South 5.8 mph - N/A   Overcast
2:55 AM 59.0 °F - 54.1 °F 84% 29.90 in 10.0 mi South 4.6 mph - N/A   Overcast
3:55 AM 58.5 °F - 54.5 °F 87% 29.90 in 10.0 mi SE 5.8 mph - N/A   Overcast
4:55 AM 57.4 °F - 55.0 °F 92% 29.89 in 10.0 mi SE 8.1 mph - N/A   Scattered Clouds
5:55 AM 56.3 °F - 55.4 °F 97% 29.92 in 10.0 mi South 5.8 mph - N/A   Clear
6:40 AM 55.4 °F - 55.4 °F 100% 29.94 in 10.0 mi SSE 3.5 mph - N/A   Mostly Cloudy
6:46 AM 55.4 °F - 55.4 °F 100% 29.94 in 10.0 mi SSE 3.5 mph - N/A   Scattered Clouds
6:48 AM 55.4 °F - 55.4 °F 100% 29.94 in 10.0 mi Calm Calm - N/A   Mostly Cloudy
6:55 AM 56.1 °F - 56.1 °F 100% 29.94 in 10.0 mi Calm Calm - N/A   Mostly Cloudy
7:24 AM 57.2 °F - 57.2 °F 100% 29.95 in 10.0 mi SE 6.9 mph - N/A   Overcast
7:55 AM 57.6 °F - 56.5 °F 96% 29.96 in 10.0 mi SE 5.8 mph - N/A   Scattered Clouds
8:55 AM 61.3 °F - 55.6 °F 81% 29.96 in 10.0 mi South 10.4 mph - N/A   Scattered Clouds
9:55 AM 64.6 °F - 55.8 °F 73% 29.96 in 10.0 mi SSE 10.4 mph - N/A   Partly Cloudy
10:55 AM 68.5 °F - 57.0 °F 67% 29.96 in 10.0 mi South 8.1 mph - N/A   Clear
11:55 AM 71.6 °F - 57.6 °F 61% 29.96 in 10.0 mi ESE 9.2 mph - N/A   Clear
12:55 PM 74.1 °F - 57.2 °F 55% 29.94 in 10.0 mi ESE 8.1 mph - N/A   Mostly Cloudy
1:55 PM 74.3 °F - 55.8 °F 52% 29.93 in 10.0 mi SE 9.2 mph - N/A   Mostly Cloudy
2:55 PM 77.5 °F - 55.6 °F 47% 29.91 in 10.0 mi ESE 11.5 mph - N/A   Clear
3:55 PM 79.2 °F - 55.0 °F 43% 29.88 in 10.0 mi SE 11.5 mph - N/A   Clear
4:55 PM 80.2 °F 80.4 °F 55.8 °F 43% 29.87 in 10.0 mi SE 8.1 mph - N/A   Clear
5:55 PM 81.3 °F 80.8 °F 54.3 °F 39% 29.87 in 10.0 mi South 10.4 mph - N/A   Clear
6:55 PM 79.7 °F - 55.0 °F 43% 29.88 in 10.0 mi South 5.8 mph - N/A   Clear
7:55 PM 77.4 °F - 54.3 °F 45% 29.89 in 10.0 mi South 6.9 mph - N/A   Clear
8:14 PM 77.0 °F - 55.4 °F 47% 29.90 in 10.0 mi SSE 4.6 mph - N/A   Light Drizzle
8:22 PM 75.2 °F - 55.4 °F 50% 29.90 in 10.0 mi SSE 5.8 mph - N/A   Clear
8:55 PM 74.7 °F - 56.7 °F 53% 29.92 in 10.0 mi SSE 8.1 mph - 0.00 in   Clear
9:55 PM 73.2 °F - 57.9 °F 59% 29.94 in 10.0 mi South 10.4 mph - N/A   Clear
10:55 PM 71.6 °F - 58.1 °F 62% 29.96 in 10.0 mi South 10.4 mph 17.3 mph N/A   Clear
11:55 PM 69.6 °F - 59.0 °F 69% 29.96 in 10.0 mi SSE 12.7 mph - N/A   Clear